Regional Weather Roundup
Issued by NWS Green Bay, WI

Home | Current Version | Previous Version | Graphics & Text | Print | Product List | Glossary Off
Versions: 1 2 3 4 5 6 7 8 9 10 11 12 13 14 15 16 17 18 19 20 21 22 23 24 25 26 27 28 29 30 31 32 33 34 35 36 37 38 39 40 41 42 43 44 45 46 47 48 49 50

732
ASUS43 KGRB 281001
RWRGRB

NORTH-CENTRAL AND NORTHEAST WISCONSIN REGIONAL WEATHER ROUNDUP
NATIONAL WEATHER SERVICE GREEN BAY WI
500 AM CDT WED JUN 28 2017

WIZ005-009-010>012-018-019-281100-
NORTH CENTRAL WISCONSIN

CITY           SKY/WX    TMP DP  RH WIND       PRES   REMARKS
IRONWOOD       CLOUDY    58  46  64 S8        29.81R
MANITOWISH WTR NOT AVBL
ARBOR VITAE    NOT AVBL
EAGLE RIVER    NOT AVBL
LAND O LAKES   CLEAR     53  47  80 S3        29.90R
RHINELANDER    CLEAR     57  46  66 S7        29.88R
PHILLIPS       CLOUDY    56  47  72 S10G16    29.82F
ANTIGO         NOT AVBL
TOMAHAWK       NOT AVBL
MERRILL        CLOUDY    48  47  95 CALM      29.88S
$$

WIZ013-073-281100-
NORTHEAST WISCONSIN

CITY           SKY/WX    TMP DP  RH WIND       PRES   REMARKS
IRON MOUNTAIN  CLEAR     51  46  83 S5        29.90R
MARINETTE      CLEAR     58  54  86 SW7       29.93R
$$

WIZ017-030-035>037-045-281100-
CENTRAL WISCONSIN

CITY           SKY/WX    TMP DP  RH WIND       PRES   REMARKS
MEDFORD        NOT AVBL
WAUSAU           N/A    N/A N/A N/A MISG      29.87S
MOSINEE        NOT AVBL
MARSHFIELD     MOCLDY    56  48  74 S8        29.85F
WISC RAPIDS    CLOUDY    58  48  69 SE6       29.88F
STEVENS POINT  NOT AVBL
WAUPACA        CLOUDY    51  50  95 CALM      29.92S
SHAWANO        NOT AVBL
CLINTONVILLE   CLEAR     52  46  82 S5        29.91S
WAUTOMA        CLOUDY    48  46  93 CALM      29.91F
$$

WIZ038-039-048-051-281100-
FOX VALLEY

CITY           SKY/WX    TMP DP  RH WIND       PRES   REMARKS
NWS GREEN BAY  CLEAR     56  51  84 S6        29.92R
APPLETON       NOT AVBL
OSHKOSH        PTCLDY    53  48  83 S8        29.93S
FOND DU LAC    CLEAR     57  46  66 S7        29.94R
$$

WIZ022-050-052-281100-
EAST CENTRAL WISCONSIN

CITY           SKY/WX    TMP DP  RH WIND       PRES   REMARKS
EPHRAIM        FAIR      55  48  76 S3        29.91R
WASHINGTON ISL NOT AVBL
STURGEON BAY     N/A     57  49  74 S10       29.94
MANITOWOC      NOT AVBL
SHEBOYGAN      CLEAR     51  50  96 CALM      29.95S
$$

LMZ563-521-522-541>543-281100-
LAKESHORE

STATION/POSITION TIME  TEMP    WIND        PRES    VSBY  WAVE
                       AIR SEA DIR/SP/G                  HT/PER
                 (UTC) (F)     (DEG/KT/KT) (MB)    (MI)  (FT/S)
SHEBOYGAN LKSHOR 0900   58     190/  9/ 10 1014.1R
KEWAUNEE LKSHORE 0930   53     180/  6/  8 1013.0S
ALGOMA MARINA    0902   54     200/  1/  4   N/A
NORTHPORT PIER   0940   57     160/  3/  5 1012.5S
N MID LAKE BUOY  0850   58 56  190/ 12/ 14 1013.6F         3/ 5
S GREEN BAY BUOY 0930   65     190/ 14/ 17 1012.4R
SISTER BAY LKSHO 0923   59     150/ 10/ 12   N/A
CHAMBERS ISLAND  0940   62     170/  4/  8 1012.2S
MENOMINEE LKSHOR 0930          190/  7/ 10 1011.8R
$$




USA.gov is the U.S. government's official web portal to all federal, state and local government web resources and services.